Regional Weather Roundup
Issued by NWS San Angelo, TX

Home | Current Version | Previous Version | Text Only | Print | Product List | Glossary On
Versions: 1 2 3 4 5 6 7 8 9 10 11 12 13 14 15 16 17 18 19 20 21 22 23 24 25 26 27 28 29 30 31 32 33 34 35 36 37 38 39 40 41 42 43 44 45 46 47 48 49 50
000
ASUS44 KSJT 270510
RWRSJT
WEST CENTRAL TEXAS REGIONAL WEATHER ROUNDUP
NATIONAL WEATHER SERVICE SAN ANGELO TX
1200 AM CDT SAT MAY 27 2017

NOTE: "FAIR" INDICATES FEW OR NO CLOUDS BELOW 12,000 FEET WITH NO
SIGNIFICANT WEATHER AND/OR OBSTRUCTIONS TO VISIBILITY.

TXZ049-054-064>066-071>073-076>078-098-099-113-114-127-128-139-140-
154-155-168>170-270600
...LOCATIONS ACROSS WEST CENTRAL TEXAS...

CITY           SKY/WX    TMP DP  RH WIND       PRES   REMARKS
SAN ANGELO     CLEAR     82  62  50 S9        29.87R
ABILENE        CLEAR     79  72  79 SE16      29.84R
DYESS AFB      CLEAR     75  69  81 S8        29.82R
JUNCTION       CLEAR     81  71  71 CALM      29.90R
SWEETWATER     CLEAR     76  42  29 S10       29.88S
BROWNWOOD      NOT AVBL
COLEMAN        CLEAR     80  69  68 S10       29.87R
SONORA         NOT AVBL
OZONA            N/A     79  68  69 S12G18    29.95S
BRADY          NOT AVBL
$$

TEXAS PANHANDLE/OKLAHOMA PANHANDLE

CITY           SKY/WX    TMP DP  RH WIND       PRES   REMARKS
AMARILLO       CLEAR     66  49  54 SE13      29.86S
BORGER         CLEAR     75  57  53 SE15G26   29.80F
CANADIAN       CLEAR     73  63  71 SE10      29.81R
DALHART        CLEAR     62  46  55 SE13      29.84F
DUMAS          CLEAR     63  47  56 SE10      29.84S
GUYMON         NOT AVBL
HEREFORD       CLEAR     71  32  23 SW12      29.87F
PAMPA          CLEAR     70  59  66 SE14      29.84F
PERRYTON       CLEAR     70  61  73 SE9       29.81S
$$

SOUTHERN PANHANDLE/SOUTH PLAINS/ROLLING PLAINS

CITY           SKY/WX    TMP DP  RH WIND       PRES   REMARKS
LUBBOCK        PTCLDY    81  27  14 SW10      29.86S
SNYDER         CLEAR     78  36  22 S6        29.86S
CHILDRESS      CLEAR     76  59  55 E9        29.80S
SEMINOLE       CLEAR     74  31  20 SW7       29.92S
$$

PERMIAN BASIN

CITY           SKY/WX    TMP DP  RH WIND       PRES   REMARKS
MIDLAND        CLEAR     75  36  24 S9        29.89R
ODESSA         CLEAR     80  31  16 S3        29.90S
WINK           CLEAR     79  28  15 SW6       29.86S
$$

FAR WEST/SOUTHWEST MOUNTAINS/TRANS PECOS

CITY           SKY/WX    TMP DP  RH WIND       PRES   REMARKS
ALPINE         CLEAR     71  33  24 SW5       30.10R
DRYDEN           N/A     79  70  74 NE8       29.89R
EL PASO        CLEAR     84  23  10 SW18      29.98R
FORT STOCKTON  CLEAR     78  52  40 S10       29.93R
GUADALUPE PASS CLEAR     76  24  14 W24       30.07S
MARFA          CLEAR     63  30  28 N3        30.08R
PECOS          CLEAR     72  28  19 S7        29.87S
$$

DALLAS/FORT WORTH METROPLEX

CITY           SKY/WX    TMP DP  RH WIND       PRES   REMARKS
DFW AIRPORT    MOCLDY    81  73  76 S6        29.80R
FTW MEACHAM    MOCLDY    82  73  74 S8        29.81R
DAL-EXECUTIVE  PTCLDY    81  74  79 S9G17     29.82R
GRAND PRAIRIE  PTCLDY    81  71  72 S8        29.83S
ADDISON        CLEAR     82  73  73 S13       29.84R
MESQUITE       PTCLDY    78  74  87 S8        29.83S
LANCASTER      PTCLDY    79  73  81 S8        29.84R
$$

NORTH CENTRAL TEXAS

CITY           SKY/WX    TMP DP  RH WIND       PRES   REMARKS
SHRMAN/DENISON CLOUDY    78  72  83 CALM      29.82S
GAINESVILLE    CLEAR     76  72  85 CALM      29.83R
BRIDGEPORT     PTCLDY    79  72  78 CALM      29.82F
DENTON         MOCLDY    80  72  76 SE6       29.80S
WAXAHACHIE     PTCLDY    78  74  86 S9        29.85R
GRANBURY       CLOUDY    82  71  69 SE3       29.83S
$$

WESTERN NORTH TEXAS

CITY           SKY/WX    TMP DP  RH WIND       PRES   REMARKS
WICHITA FALLS  CLEAR     74  64  71 SE7       29.78S
VERNON         CLEAR     77  58  51 E7        29.79S
BRECKENRIDGE   CLEAR     82  70  66 S15G22    29.81S
COMANCHE       MOCLDY    80  71  75 S8        29.86R
$$

CENTRAL AND SOUTH CENTRAL TEXAS

CITY           SKY/WX    TMP DP  RH WIND       PRES   REMARKS
AUSTIN/BERGSTM CLOUDY    81  76  84 S14       29.87S
WACO           PTCLDY    79  74  84 S20       29.83S
HILLSBORO      PTCLDY    79  74  85 S12       29.84S
TEMPLE         CLEAR     78  75  90 S15       29.85S
KILLEEN-GRAY   MOCLDY    79  73  83 S14       29.85S
FORT HOOD      PTCLDY    77  73  87 S14       29.82R
GEORGETOWN     CLOUDY    81  72  74 S13       29.87R
LAGO VISTA     CLOUDY    79  75  86 S9G20     29.90R
SAN MARCOS     CLOUDY    79  75  89 S10       29.89S
NEW BRAUNFELS  CLOUDY    80  75  84 S13       29.87S
RANDOLPH AFB   CLOUDY    79  79 100 S10       29.88S
SAN ANTONIO    CLOUDY    80  75  84 SE12      29.89R
STINSON        CLOUDY    82  75  79 SE13      29.86R
PLEASANTON     NOT AVBL
LA GRANGE      CLOUDY    81  77  88 S10       29.88R
GIDDINGS       CLOUDY    79  74  84 S8        29.90R
$$

EAST TEXAS

CITY           SKY/WX    TMP DP  RH WIND       PRES   REMARKS
PARIS          CLOUDY    77  70  78 S8        29.83F
CLARKSVILLE    NOT AVBL
TYLER          MOCLDY    79  76  90 S13       29.87R
LONGVIEW       CLOUDY    79  75  87 S14       29.86S
PALESTINE      CLEAR     78  75  90 SE8       29.87F
NACOGDOCHES    CLOUDY    77  72  83 S12       29.88S
$$

TEXAS HILL COUNTRY AND EDWARDS PLATEAU

CITY           SKY/WX    TMP DP  RH WIND       PRES   REMARKS
LLANO          PTCLDY    77  72  83 CALM      29.90S
HORSESHOE BAY  NOT AVBL
KERRVILLE      CLOUDY    76  74  93 SE6       29.92R
FREDERICKSBRG  MOCLDY    77  72  84 S6        29.92R
ROCKSPRINGS    CLEAR     75  72  88 S8        29.95S
HONDO          MOCLDY    81  76  84 SE10      29.88R
UVALDE         PTCLDY    80  76  88 CALM      29.88R
DEL RIO        PTCLDY    80  74  81 SE7       29.84R
$$

SOUTHEAST TEXAS

CITY           SKY/WX    TMP DP  RH WIND       PRES   REMARKS
COLLEGE STN    CLOUDY    79  75  87 S13       29.88S
CALDWELL       NOT AVBL
CROCKETT       PTCLDY    75  73  94 S8        29.92S
BRENHAM        CLOUDY    81  76  84 S10       29.90S
HUNTSVILLE     CLOUDY    79  73  82 S6        29.90S
CONROE         CLOUDY    79  74  84 S13       29.91S
HOUSTON BUSH   CLOUDY    81  74  79 S12       29.91S
HOUSTON HOBBY  CLOUDY    79  75  87 S8        29.92S
PERLAND        CLOUDY    82  76  81 S9        29.93S
WHARTON        CLOUDY    79  73  83 SE12      29.92S
$$

THE UPPER TEXAS COAST

CITY           SKY/WX    TMP DP  RH WIND       PRES   REMARKS
ORANGE         CLOUDY    79  76  92 S8        29.97R
PORT ARTHUR    CLOUDY    79  75  87 S12       29.94S
GALVESTON      CLOUDY    81  78  91 S17       29.94S
ANGLETON       CLOUDY    81  77  88 S20       29.92S
BAY CITY       CLOUDY    79  77  92 SE9       29.92R
$$

TEXAS COASTAL BEND, RIO GRANDE PLAINS DEEP SOUTH TEXAS

CITY           SKY/WX    TMP DP  RH WIND       PRES   REMARKS
VICTORIA       CLOUDY    80  76  87 SE14      29.90S
BEEVILLE       CLOUDY    81  81 100 SE12G18   29.88S
ROCKPORT       CLOUDY    81  77  88 SE13      29.88S
PORT ARANSAS   CLOUDY    79  77  92 SE14      29.89R FOG
PORT LAVACA    CLOUDY    79  78  97 SE8G20    29.90S
CORPUS CHRISTI CLOUDY    81  78  91 SE14G22   29.88R
KINGSVILLE NAS CLOUDY    82  80  94 SE14      29.87R
COTULLA        CLOUDY    84  76  76 SE10      29.85R
LAREDO         PTCLDY    88  77  69 SE14      29.83R
BROWNSVILLE    CLOUDY    83  78  85 SE16      29.89R
PORT ISABEL    MOCLDY    81  79  94 SE17      29.88R FOG
HEBBRONVILLE   CLOUDY    82  74  77 SE9       29.88R
MCALLEN        CLOUDY    84  77  79 SE21G31   29.87R
WESLACO        CLOUDY    80  77  88 S15       29.87R
FALFURRIAS     CLOUDY    82  77  86 SE10G16   29.87R
EDINBURG       CLOUDY    83  76  79 SE12G17   29.87R
$$



USA.gov is the U.S. government's official web portal to all federal, state and local government web resources and services.